| time (UTC) | temp F | wind direction | speed MPH | gust MPH | rain 1hr in | rain 24hr in | rain mn in | humidity % | barometer mb |
| 20260901140011 | 49 | 288 | 2.0 | 4.0 | 0.00 | 0.00 | 0.00 | 82 | 1014.1 |
| 20260901134508 | 47 | 288 | 2.0 | 5.0 | 0.00 | 0.00 | 0.00 | 84 | 1014.1 |
| 20260901133005 | 45 | 288 | 1.0 | 4.0 | 0.00 | 0.00 | 0.00 | 85 | 1014.0 |
| 20260901131503 | 44 | 288 | 2.0 | 4.0 | 0.00 | 0.00 | 0.00 | 86 | 1014.0 |
| 20260901130058 | 43 | 288 | 3.0 | 5.0 | 0.00 | 0.00 | 0.00 | 86 | 1014.1 |
| 20260901124557 | 42 | 288 | 3.0 | 5.0 | 0.00 | 0.00 | 0.00 | 86 | 1014.1 |
| 20260901123054 | 42 | 288 | 3.0 | 5.0 | 0.00 | 0.00 | 0.00 | 85 | 1014.1 |
| 20260901121601 | 43 | 288 | 2.0 | 4.0 | 0.00 | 0.00 | 0.00 | 85 | 1014.1 |
| 20260901120052 | 43 | 288 | 2.0 | 4.0 | 0.00 | 0.00 | 0.00 | 84 | 1014.1 |
| 20260901114551 | 43 | 288 | 1.0 | 4.0 | 0.00 | 0.00 | 0.00 | 84 | 1014.2 |
| 20260901113049 | 43 | 288 | 2.0 | 5.0 | 0.00 | 0.00 | 0.00 | 83 | 1014.3 |
| 20260901111550 | 43 | 288 | 2.0 | 4.0 | 0.00 | 0.00 | 0.00 | 84 | 1014.4 |
| 20260901110048 | 43 | 288 | 3.0 | 5.0 | 0.00 | 0.00 | 0.00 | 84 | 1014.3 |
| 20260901104546 | 43 | 288 | 3.0 | 5.0 | 0.00 | 0.00 | 0.00 | 84 | 1014.3 |
| 20260901103043 | 43 | 288 | 3.0 | 5.0 | 0.00 | 0.00 | 0.00 | 84 | 1014.4 |
| 20260901101557 | 43 | 288 | 3.0 | 5.0 | 0.00 | 0.00 | 0.00 | 83 | 1014.5 |
| 20260901100046 | 44 | 288 | 2.0 | 4.0 | 0.00 | 0.00 | 0.00 | 83 | 1014.5 |
| 20260901094542 | 44 | 288 | 2.0 | 4.0 | 0.00 | 0.00 | 0.00 | 83 | 1014.5 |
| 20260901093034 | 43 | 288 | 3.0 | 4.0 | 0.00 | 0.00 | 0.00 | 83 | 1014.5 |
| 20260901091547 | 43 | 288 | 3.0 | 4.0 | 0.00 | 0.00 | 0.00 | 83 | 1014.5 |
| 20260901090028 | 44 | 288 | 3.0 | 4.0 | 0.00 | 0.00 | 0.00 | 83 | 1014.5 |
| 20260901084536 | 44 | 288 | 3.0 | 5.0 | 0.00 | 0.00 | 0.00 | 82 | 1014.6 |
| 20260901083030 | 44 | 288 | 3.0 | 4.0 | 0.00 | 0.00 | 0.00 | 81 | 1014.5 |
| 20260901081522 | 44 | 288 | 2.0 | 5.0 | 0.00 | 0.00 | 0.00 | 81 | 1014.6 |
| 20260901080049 | 45 | 288 | 1.0 | 3.0 | 0.00 | 0.00 | 0.00 | 81 | 1014.7 |
| 20260901074518 | 45 | 288 | 2.0 | 4.0 | 0.00 | 0.00 | 0.00 | 81 | 1014.9 |
| 20260901073020 | 45 | 288 | 3.0 | 5.0 | 0.00 | 0.00 | 0.00 | 80 | 1015.0 |
| 20260901071514 | 45 | 288 | 3.0 | 5.0 | 0.00 | 0.00 | 0.00 | 80 | 1014.9 |
| 20260901070012 | 46 | 288 | 3.0 | 4.0 | 0.00 | 0.00 | 0.00 | 79 | 1014.9 |
| 20260901064512 | 46 | 288 | 2.0 | 4.0 | 0.00 | 0.00 | 0.00 | 78 | 1014.9 |
| 20260901063006 | 47 | 288 | 2.0 | 3.0 | 0.00 | 0.00 | 0.00 | 78 | 1015.0 |
| 20260901061502 | 48 | 288 | 2.0 | 4.0 | 0.00 | 0.00 | 0.00 | 75 | 1015.0 |
| 20260901060058 | 49 | 141 | 2.0 | 4.0 | 0.00 | 0.00 | 0.00 | 74 | 1015.0 |
| 20260901054556 | 50 | 142 | 1.0 | 3.0 | 0.00 | 0.00 | 0.00 | 72 | 1015.1 |
| 20260901053107 | 51 | 142 | 2.0 | 3.0 | 0.00 | 0.00 | 0.00 | 70 | 1015.2 |
| 20260901051556 | 53 | 142 | 1.0 | 3.0 | 0.00 | 0.00 | 0.00 | 68 | 1015.1 |
| 20260901050053 | 53 | 142 | 1.0 | 3.0 | 0.00 | 0.00 | 0.00 | 66 | 1015.2 |
| 20260901044610 | 55 | 141 | 0.0 | 2.0 | 0.00 | 0.00 | 0.00 | 63 | 1015.2 |
| 20260901043051 | 56 | 142 | 1.0 | 3.0 | 0.00 | 0.00 | 0.00 | 61 | 1015.2 |
| 20260901041550 | 56 | 142 | 0.0 | 1.0 | 0.00 | 0.00 | 0.00 | 59 | 1015.2 |
| 20260901040059 | 57 | 142 | 0.0 | 1.0 | 0.00 | 0.00 | 0.00 | 56 | 1015.0 |
| 20260901034548 | 58 | 142 | 0.0 | 2.0 | 0.00 | 0.00 | 0.00 | 55 | 1015.0 |
| 20260901033050 | 58 | 142 | 1.0 | 4.0 | 0.00 | 0.00 | 0.00 | 55 | 1014.8 |
| 20260901031548 | 60 | 142 | 0.0 | 2.0 | 0.00 | 0.00 | 0.00 | 53 | 1014.7 |
| 20260901030047 | 59 | 196 | 2.0 | 6.0 | 0.00 | 0.00 | 0.00 | 56 | 1014.6 |
| 20260901024557 | 61 | 67 | 2.0 | 4.0 | 0.00 | 0.00 | 0.00 | 53 | 1014.4 |
| 20260901023049 | 63 | 67 | 0.0 | 4.0 | 0.00 | 0.00 | 0.00 | 49 | 1014.4 |
| 20260901021603 | 64 | 170 | 0.0 | 1.0 | 0.00 | 0.00 | 0.00 | 48 | 1014.5 |
| 20260901020044 | 66 | 170 | 0.0 | 2.0 | 0.00 | 0.00 | 0.00 | 46 | 1014.5 |
| 20260901014543 | 68 | 170 | 0.0 | 2.0 | 0.00 | 0.00 | 0.00 | 44 | 1014.5 |
| 20260901013043 | 69 | 169 | 2.0 | 4.0 | 0.00 | 0.00 | 0.00 | 42 | 1014.6 |
| 20260901011542 | 71 | 169 | 3.0 | 5.0 | 0.00 | 0.00 | 0.00 | 41 | 1014.6 |
| 20260901010042 | 72 | 190 | 4.0 | 9.0 | 0.00 | 0.00 | 0.00 | 40 | 1014.7 |
| 20260901004542 | 72 | 184 | 5.0 | 9.0 | 0.00 | 0.00 | 0.00 | 37 | 1014.8 |
| 20260901003041 | 73 | 240 | 0.0 | 4.0 | 0.00 | 0.00 | 0.00 | 34 | 1014.8 |
| 20260901001542 | 74 | 283 | 2.0 | 5.0 | 0.00 | 0.00 | 0.00 | 34 | 1014.9 |
| 20260901000040 | 75 | 232 | 1.0 | 6.0 | 0.00 | 0.00 | 0.00 | 33 | 1014.9 |
| 20260831234539 | 74 | 306 | 2.0 | 5.0 | 0.00 | 0.00 | 0.00 | 33 | 1015.0 |
| 20260831233038 | 75 | 219 | 4.0 | 7.0 | 0.00 | 0.00 | 0.00 | 35 | 1015.0 |
| 20260831231554 | 74 | 283 | 3.0 | 9.0 | 0.00 | 0.00 | 0.00 | 35 | 1015.0 |
| 20260831230038 | 75 | 281 | 2.0 | 6.0 | 0.00 | 0.00 | 0.00 | 35 | 1015.1 |
| 20260831224550 | 74 | 213 | 1.0 | 9.0 | 0.00 | 0.00 | 0.00 | 35 | 1015.2 |
| 20260831223035 | 74 | 223 | 5.0 | 10.0 | 0.00 | 0.00 | 0.00 | 35 | 1015.2 |
| 20260831221547 | 74 | 226 | 1.0 | 10.0 | 0.00 | 0.00 | 0.00 | 35 | 1015.3 |
| 20260831220031 | 74 | 194 | 6.0 | 11.0 | 0.00 | 0.00 | 0.00 | 38 | 1015.3 |
| 20260831214536 | 73 | 169 | 3.0 | 13.0 | 0.00 | 0.00 | 0.00 | 38 | 1015.4 |
| 20260831213030 | 73 | 299 | 7.0 | 12.0 | 0.00 | 0.00 | 0.00 | 38 | 1015.5 |
| 20260831211527 | 72 | 178 | 2.0 | 13.0 | 0.00 | 0.00 | 0.00 | 39 | 1015.4 |
| 20260831210032 | 73 | 247 | 5.0 | 10.0 | 0.00 | 0.00 | 0.00 | 39 | 1015.5 |
| 20260831204533 | 72 | 230 | 4.0 | 9.0 | 0.00 | 0.00 | 0.00 | 40 | 1015.7 |
| 20260831203033 | 72 | 253 | 3.0 | 10.0 | 0.00 | 0.00 | 0.00 | 43 | 1015.8 |
| 20260831201523 | 72 | 254 | 2.0 | 9.0 | 0.00 | 0.00 | 0.00 | 40 | 1015.9 |
| 20260831200023 | 72 | 279 | 3.0 | 10.0 | 0.00 | 0.00 | 0.00 | 41 | 1016.0 |
| 20260831194519 | 71 | 315 | 4.0 | 15.0 | 0.00 | 0.00 | 0.00 | 42 | 1016.1 |
| 20260831193019 | 70 | 331 | 6.0 | 12.0 | 0.00 | 0.00 | 0.00 | 42 | 1016.1 |
| 20260831191535 | 71 | 232 | 6.0 | 10.0 | 0.00 | 0.00 | 0.00 | 41 | 1016.3 |
| 20260831190016 | 70 | 246 | 2.0 | 10.0 | 0.00 | 0.00 | 0.00 | 43 | 1016.5 |
| 20260831184513 | 69 | 279 | 2.0 | 10.0 | 0.00 | 0.00 | 0.00 | 43 | 1016.6 |
| 20260831183019 | 69 | 302 | 4.0 | 14.0 | 0.00 | 0.00 | 0.00 | 44 | 1016.8 |
| 20260831181507 | 68 | 360 | 5.0 | 11.0 | 0.00 | 0.00 | 0.00 | 45 | 1016.7 |
| 20260831180003 | 68 | 299 | 6.0 | 15.0 | 0.00 | 0.00 | 0.00 | 46 | 1016.9 |
| 20260831174600 | 67 | 284 | 3.0 | 10.0 | 0.00 | 0.00 | 0.00 | 47 | 1017.0 |
| 20260831173056 | 67 | 291 | 3.0 | 10.0 | 0.00 | 0.00 | 0.00 | 49 | 1017.0 |
| 20260831171550 | 66 | 283 | 6.0 | 12.0 | 0.00 | 0.00 | 0.00 | 49 | 1016.9 |
| 20260831170046 | 66 | 301 | 5.0 | 12.0 | 0.00 | 0.00 | 0.00 | 49 | 1017.0 |
| 20260831164541 | 65 | 314 | 6.0 | 11.0 | 0.00 | 0.00 | 0.00 | 51 | 1017.0 |
| 20260831163037 | 64 | 275 | 7.0 | 11.0 | 0.00 | 0.00 | 0.00 | 51 | 1017.0 |
| 20260831161533 | 63 | 294 | 6.0 | 12.0 | 0.00 | 0.00 | 0.00 | 51 | 1017.0 |
| 20260831160030 | 62 | 297 | 5.0 | 13.0 | 0.00 | 0.00 | 0.00 | 53 | 1016.9 |
| 20260831154540 | 61 | 284 | 6.0 | 13.0 | 0.00 | 0.00 | 0.00 | 54 | 1016.9 |
| 20260831153024 | 60 | 288 | 9.0 | 14.0 | 0.00 | 0.00 | 0.00 | 54 | 1016.7 |
| 20260831151519 | 59 | 294 | 9.0 | 15.0 | 0.00 | 0.00 | 0.00 | 56 | 1016.7 |
| 20260831150011 | 58 | 283 | 11.0 | 16.0 | 0.00 | 0.00 | 0.00 | 58 | 1016.5 |
| 20260831144502 | 56 | 290 | 8.0 | 14.0 | 0.00 | 0.00 | 0.00 | 60 | 1016.5 |
| 20260831143108 | 55 | 290 | 8.0 | 13.0 | 0.00 | 0.00 | 0.00 | 62 | 1016.3 |
| 20260831141553 | 54 | 283 | 6.0 | 11.0 | 0.00 | 0.00 | 0.00 | 65 | 1016.2 |